Main page


Airports :

Sari, Iran

Dasht-e Naz Airport

latitude: 36-38-09N, longitude: 53-11-37E, elevation: 11 m

Current weather observation

The report was made 59 minutes ago, at 09:00 UTC
Wind 6 kt from the East/Northeast
Temperature 12°C
Humidity 82%
Pressure 1018 hPa
Visibility 10 km or more
Few clouds at a height of 3500 ft
Broken clouds at a height of 9000 ft

METAR: OINZ 180900Z 07006KT 9999 FEW035 BKN090 12/09 Q1018

Time: 13:29 (09:59 UTC)

TAF: missing

Weather observations and forecasts of more than 4000 airports (METAR and TAF reports).

The available stations are represented by yellow and red dots on the map.

Hover mouse over dot to see the name of the station.

Then click to see weather observations and forecasts.

To change the map : click on the green buttons with a black cross to zoom in, on the green button with a dash to zoom out, or on the green arrows for adjacent maps.